[[{"header":{"parameterUnit":"m.s-1","parameterCategory":1,"la1":30.2992,"la2":30.254,"lo1":-89.0895,"lo2":-89.0443,"dy":0.0025,"dx":0.0025,"nx":19,"ny":19,"refTime":"2026-04-30T21:00:00:Z","depth":0,"parameterNumber":2,"parameterNumberName":"U-component_of_WINDS"},"data":[0,0,0,-1.7933,-1.793,-1.7749,-1.7748,-1.7558,-1.7557,0,0,0,0,0,0,0,0,0,0,0,-1.8014,-1.8014,-1.7933,-1.793,-1.7749,-1.7748,-1.7558,-1.7557,0,0,0,0,0,0,0,0,0,0,0,-1.8014,-1.8014,-1.8014,-1.7929,-1.7749,-1.7748,-1.7559,-1.768,0,0,0,0,0,0,0,0,0,0,-1.7848,-1.795,-1.8014,-1.8014,-1.7928,-1.7749,-1.7747,-1.7685,-1.7672,-1.7659,0,-1.7656,0,-1.7604,-1.7547,-1.7546,0,0,0,-1.7908,-1.7961,-1.7888,-1.8014,-1.7927,-1.775,-1.7824,-1.7677,-1.7663,-1.7642,-1.7653,-1.7645,-1.7601,-1.7546,-1.7545,-1.7546,-1.7547,0,0,-1.7918,-1.7996,-1.7898,-1.788,-1.7913,-1.783,-1.7819,-1.7668,-1.7684,-1.7652,-1.7639,-1.7598,-1.7545,-1.7544,-1.7545,-1.7546,0,0,0,-1.7961,-1.8004,-1.7933,-1.7889,-1.7854,-1.7826,-1.7812,-1.769,-1.7661,-1.7637,-1.7595,-1.7544,-1.7542,-1.7543,-1.7545,-1.7674,0,0,0,-1.7966,-1.8029,-1.7938,-1.7984,-1.7857,-1.777,-1.7839,-1.7671,-1.7652,-1.7596,-1.7544,-1.7541,-1.7542,-1.7544,-1.7668,-1.7722,0,0,0,-1.8017,-1.8034,-1.8018,-1.7989,-1.7914,-1.7771,-1.7732,-1.7665,-1.7628,-1.7546,-1.7541,-1.7541,-1.7544,-1.7662,-1.7713,-1.7748,0,0,0,-1.8092,-1.8131,-1.8021,-1.8048,-1.7916,-1.7852,-1.7732,-1.7679,-1.7624,-1.7543,-1.7542,-1.7545,-1.766,-1.7707,-1.7743,-1.7795,-1.7823,0,0,-1.8185,-1.8145,-1.8155,-1.8051,-1.8028,-1.7873,-1.7866,-1.774,-1.7659,-1.7588,-1.7587,-1.767,-1.7712,-1.7747,-1.7946,-1.7969,0,0,0,-1.8211,-1.822,-1.8196,-1.815,-1.8057,-1.7982,-1.785,-1.7803,-1.7739,-1.7639,-1.7687,-1.771,-1.7727,-1.7749,-1.7768,-1.7779,-1.7557,-1.7557,-1.7557,-1.8455,-1.8353,-1.8363,-1.824,-1.8196,-1.806,-1.8015,-1.7929,-1.7835,-1.7848,-1.7828,-1.7962,-1.7989,-1.8003,-1.8017,-1.7843,-1.7844,-1.7844,-1.7844,-1.8585,-1.8584,-1.846,-1.8428,-1.8319,-1.8288,-1.8159,-1.8094,-1.805,-1.7968,-1.7978,-1.7901,-1.8032,-1.8038,-1.7853,-1.7851,-1.785,-1.785,-1.7849,-1.8738,-1.8719,-1.8663,-1.8587,-1.8539,-1.841,-1.8375,-1.8274,-1.8179,-1.8189,-1.8158,-1.8156,-1.8144,-1.818,-1.8181,-1.8181,-1.8182,-1.8182,-1.8182,-1.892,-1.8852,-1.8837,-1.8743,-1.8701,-1.8633,-1.8497,-1.8452,-1.8377,-1.8306,-1.8305,-1.8214,-1.8063,-1.803,-1.8189,-1.8188,-1.8187,-1.8186,-1.8186,-1.9097,-1.9041,-1.9018,-1.8976,-1.8858,-1.8819,-1.8691,-1.8609,-1.8556,-1.8543,-1.8447,-1.8351,-1.8302,-1.8286,-1.8258,-1.8467,-1.8467,-1.8467,-1.8467,-1.9229,-1.9194,-1.9149,-1.909,-1.9019,-1.8902,-1.8879,-1.8773,-1.8655,-1.8616,-1.857,-1.8523,-1.8511,-1.847,-1.845,-1.8422,-1.8668,-1.8668,-1.8668,-1.9334,-1.9288,-1.929,-1.9176,-1.9076,-1.8993,-1.8969,-1.8905,-1.8758,-1.8674,-1.8585,-1.8576,-1.8499,-1.8479,-1.8398,-1.8369,-1.8316,0,0]},{"header":{"parameterUnit":"m.s-1","parameterCategory":1,"la1":30.2992,"la2":30.254,"lo1":-89.0895,"lo2":-89.0443,"dy":0.0025,"dx":0.0025,"nx":19,"ny":19,"refTime":"2026-04-30T21:00:00:Z","depth":0,"parameterNumber":3,"parameterNumberName":"V-component_of_WINDS"},"data":[0,0,0,-0.4134,-0.4134,-0.413,-0.413,-0.4124,-0.4124,0,0,0,0,0,0,0,0,0,0,0,-0.4137,-0.4137,-0.4134,-0.4134,-0.413,-0.413,-0.4124,-0.4124,0,0,0,0,0,0,0,0,0,0,0,-0.4137,-0.4137,-0.4137,-0.4134,-0.413,-0.413,-0.4124,-0.4127,0,0,0,0,0,0,0,0,0,0,-0.4131,-0.4135,-0.4137,-0.4137,-0.4134,-0.413,-0.413,-0.4127,-0.4127,-0.4126,0,-0.4127,0,-0.4126,-0.4124,-0.4124,0,0,0,-0.4133,-0.4136,-0.4133,-0.4137,-0.4134,-0.413,-0.4131,-0.4127,-0.4127,-0.4126,-0.4127,-0.4127,-0.4126,-0.4124,-0.4124,-0.4127,-0.4127,0,0,-0.4133,-0.4137,-0.4134,-0.4133,-0.4135,-0.4131,-0.4131,-0.4127,-0.4128,-0.4127,-0.4127,-0.4125,-0.4124,-0.4124,-0.4127,-0.4127,0,0,0,-0.4135,-0.4137,-0.4134,-0.4133,-0.4133,-0.4131,-0.4131,-0.4128,-0.4127,-0.4127,-0.4125,-0.4124,-0.4124,-0.4127,-0.4127,-0.4135,0,0,0,-0.4135,-0.4138,-0.4135,-0.4137,-0.4133,-0.4131,-0.4133,-0.4128,-0.4127,-0.4125,-0.4124,-0.4124,-0.4127,-0.4127,-0.4135,-0.4138,0,0,0,-0.4136,-0.4138,-0.4138,-0.4137,-0.4135,-0.4131,-0.4129,-0.4127,-0.4126,-0.4124,-0.4124,-0.4127,-0.4127,-0.4134,-0.4138,-0.414,0,0,0,-0.4139,-0.4145,-0.4138,-0.4143,-0.4135,-0.4136,-0.4129,-0.4129,-0.4128,-0.4124,-0.4127,-0.4127,-0.4134,-0.4137,-0.414,-0.4144,-0.4146,0,0,-0.4148,-0.4146,-0.4148,-0.4142,-0.4145,-0.4136,-0.4139,-0.4134,-0.413,-0.4128,-0.4128,-0.4135,-0.4138,-0.414,-0.4153,-0.4155,0,0,0,-0.4152,-0.4154,-0.4154,-0.4154,-0.415,-0.4147,-0.4141,-0.4139,-0.4137,-0.413,-0.4136,-0.4138,-0.4139,-0.4141,-0.4142,-0.4143,-0.4128,-0.4128,-0.4128,-0.4171,-0.4165,-0.4169,-0.4163,-0.4162,-0.4155,-0.4153,-0.4149,-0.4144,-0.4145,-0.4145,-0.4153,-0.4155,-0.4156,-0.4157,-0.4146,-0.4146,-0.4146,-0.4146,-0.4183,-0.4185,-0.4177,-0.4178,-0.4172,-0.4172,-0.4164,-0.416,-0.4159,-0.4154,-0.4154,-0.415,-0.4158,-0.4159,-0.4146,-0.4146,-0.4146,-0.4146,-0.4146,-0.4195,-0.4195,-0.4193,-0.419,-0.4188,-0.4181,-0.4179,-0.4173,-0.4167,-0.4168,-0.4166,-0.4166,-0.4166,-0.4167,-0.4167,-0.4167,-0.4167,-0.4167,-0.4168,-0.421,-0.4206,-0.4206,-0.4202,-0.42,-0.4196,-0.4188,-0.4185,-0.418,-0.4176,-0.4176,-0.417,-0.416,-0.4158,-0.4168,-0.4168,-0.4168,-0.4168,-0.4168,-0.4226,-0.4221,-0.4222,-0.422,-0.4213,-0.4211,-0.4202,-0.4197,-0.4193,-0.4192,-0.4186,-0.4179,-0.4176,-0.4175,-0.4174,-0.4187,-0.4187,-0.4187,-0.4187,-0.4237,-0.4234,-0.4233,-0.423,-0.4226,-0.4217,-0.4216,-0.4209,-0.42,-0.4197,-0.4194,-0.4191,-0.419,-0.4188,-0.4186,-0.4185,-0.4201,-0.4201,-0.4201,-0.4247,-0.4243,-0.4245,-0.4237,-0.4231,-0.4225,-0.4223,-0.4219,-0.4207,-0.4201,-0.4195,-0.4194,-0.4189,-0.4187,-0.4183,-0.4181,-0.4178,0,0]}]]